TimeAKST,TemperatureF,Dew PointF,Humidity,Sea Level PressureIn,VisibilityMPH,Wind Direction,Wind SpeedMPH,Gust SpeedMPH,PrecipitationIn,Events,Conditions,WindDirDegrees,DateUTC
12:04 AM,33.8,32.0,93,29.44,4.0,East,10.4,16.1,0.00,Snow,Light Snow,90,2013-02-20 09:04:00
12:16 AM,33.8,32.0,93,29.43,1.8,East,10.4,17.3,0.00,Snow,Light Snow,90,2013-02-20 09:16:00
12:24 AM,33.8,32.0,93,29.42,1.5,East,9.2,19.6,0.00,Snow,Light Snow,90,2013-02-20 09:24:00
12:30 AM,33.8,32.0,93,29.41,1.0,East,9.2,17.3,0.01,Snow,Light Snow,80,2013-02-20 09:30:00
12:40 AM,33.8,32.0,93,29.41,0.8,East,9.2,-,0.02,Snow,Light Snow,80,2013-02-20 09:40:00
12:48 AM,33.8,32.0,93,29.40,1.0,ENE,9.2,-,0.03,Snow,Light Snow,70,2013-02-20 09:48:00
12:53 AM,33.1,32.0,96,29.40,1.0,ENE,10.4,-,0.03,Snow,Light Snow,70,2013-02-20 09:53:00
1:53 AM,33.1,32.0,96,29.35,1.0,ENE,9.2,-,0.07,Snow,Light Snow,60,2013-02-20 10:53:00
2:01 AM,33.8,32.0,93,29.34,1.0,ENE,9.2,-,0.01,Snow,Light Snow,60,2013-02-20 11:01:00
2:49 AM,33.8,32.0,93,29.31,1.0,ENE,11.5,-,0.05,Snow,Light Snow,70,2013-02-20 11:49:00
3:08 AM,33.8,32.0,93,29.29,1.0,ENE,12.7,20.7,0.02,Snow,Light Snow,70,2013-02-20 12:08:00
3:53 AM,33.1,32.0,96,29.27,1.0,East,12.7,18.4,0.06,Snow,Light Snow,80,2013-02-20 12:53:00
4:13 AM,33.8,32.0,93,29.26,1.5,East,9.2,-,0.01,Snow,Light Snow,80,2013-02-20 13:13:00
4:20 AM,33.8,32.0,93,29.25,1.2,East,9.2,17.3,0.02,Snow,Light Snow,80,2013-02-20 13:20:00
4:42 AM,33.8,32.0,93,29.25,1.5,East,10.4,-,0.03,Snow,Light Snow,90,2013-02-20 13:42:00
4:49 AM,33.8,32.0,93,29.24,1.2,East,10.4,-,0.04,Snow,Light Snow,90,2013-02-20 13:49:00
4:53 AM,33.1,32.0,96,29.25,1.2,East,8.1,17.3,0.04,Snow,Light Snow,90,2013-02-20 13:53:00
5:02 AM,33.8,32.0,93,29.24,1.5,East,11.5,18.4,0.01,Snow,Light Snow,90,2013-02-20 14:02:00
5:25 AM,33.8,32.0,93,29.24,1.2,East,9.2,19.6,0.03,Snow,Light Snow,90,2013-02-20 14:25:00
5:53 AM,33.1,32.0,96,29.24,1.5,ESE,6.9,17.3,0.06,Snow,Light Snow,110,2013-02-20 14:53:00
6:01 AM,33.8,32.0,93,29.24,3.0,East,9.2,-,0.01,Snow,Light Snow,90,2013-02-20 15:01:00
6:26 AM,33.8,33.8,100,29.25,10.0,SE,8.1,-,0.03,Rain,Light Rain,130,2013-02-20 15:26:00
6:34 AM,33.8,32.0,93,29.25,2.5,Calm,Calm,-,0.05,Snow,Light Snow,0,2013-02-20 15:34:00
6:45 AM,33.8,32.0,93,29.25,5.0,NE,4.6,-,0.07,Snow,Light Snow,50,2013-02-20 15:45:00
6:53 AM,33.1,33.1,100,29.25,7.0,East,4.6,-,0.08,Rain,Light Rain,80,2013-02-20 15:53:00
7:11 AM,33.8,32.0,93,29.25,6.0,ESE,5.8,-,0.03,Rain-Snow,Light Snow,110,2013-02-20 16:11:00
7:53 AM,33.1,33.1,100,29.25,7.0,ESE,4.6,-,0.06,Snow,Light Snow,110,2013-02-20 16:53:00
8:30 AM,33.8,33.8,100,29.24,10.0,East,8.1,-,0.00,,Overcast,80,2013-02-20 17:30:00
8:34 AM,33.8,32.0,93,29.24,9.0,East,6.9,-,0.00,,Light Ice Pellets,90,2013-02-20 17:34:00
8:48 AM,33.8,33.8,100,29.23,6.0,East,9.2,-,0.01,Rain,Light Rain,80,2013-02-20 17:48:00
8:53 AM,34.0,33.1,96,29.23,10.0,East,8.1,-,0.01,Rain,Light Rain,90,2013-02-20 17:53:00
9:35 AM,33.8,33.8,100,29.22,10.0,East,10.4,17.3,0.00,,Overcast,100,2013-02-20 18:35:00
9:53 AM,34.0,33.1,96,29.22,6.0,East,6.9,-,0.00,Rain-Snow,Light Rain,100,2013-02-20 18:53:00
9:59 AM,33.8,33.8,100,29.22,3.0,East,9.2,-,0.01,,Light Ice Pellets,100,2013-02-20 18:59:00
10:06 AM,33.8,33.8,100,29.22,2.0,East,6.9,-,0.02,Rain-Snow,Light Rain,100,2013-02-20 19:06:00
10:11 AM,33.8,33.8,100,29.22,3.0,ESE,8.1,-,0.03,Rain-Snow,Light Rain,110,2013-02-20 19:11:00
10:19 AM,33.8,33.8,100,29.21,5.0,ESE,8.1,-,0.03,Rain-Snow,Light Rain,110,2013-02-20 19:19:00
10:42 AM,33.8,32.0,93,29.20,1.8,East,9.2,17.3,0.04,Rain-Snow,Light Rain,100,2013-02-20 19:42:00
10:48 AM,33.8,32.0,93,29.20,0.8,ESE,6.9,17.3,0.05,Rain-Snow,Light Rain,110,2013-02-20 19:48:00
10:53 AM,33.1,32.0,96,29.20,0.8,East,8.1,-,0.06,Snow,Light Snow,100,2013-02-20 19:53:00
11:33 AM,33.8,32.0,93,29.19,1.0,East,9.2,17.3,0.06,Snow,Light Snow,100,2013-02-20 20:33:00
11:44 AM,33.8,32.0,93,29.19,0.8,East,9.2,16.1,0.07,Snow,Light Snow,100,2013-02-20 20:44:00
11:53 AM,33.1,32.0,96,29.19,0.8,East,9.2,-,0.08,Snow,Light Snow,100,2013-02-20 20:53:00
12:53 PM,33.1,32.0,96,29.18,1.0,ESE,6.9,-,0.11,Snow,Light Snow,110,2013-02-20 21:53:00
1:04 PM,33.8,32.0,93,29.18,2.0,East,6.9,-,0.02,Snow,Light Snow,100,2013-02-20 22:04:00
1:13 PM,33.8,33.8,100,29.18,8.0,East,9.2,-,0.02,Rain-Snow,Light Rain,100,2013-02-20 22:13:00
1:29 PM,33.8,33.8,100,29.18,7.0,SE,5.8,-,0.03,Rain-Snow,Light Rain,130,2013-02-20 22:29:00
1:40 PM,33.8,33.8,100,29.18,2.5,East,4.6,-,0.05,Rain-Snow,Light Rain,90,2013-02-20 22:40:00
1:43 PM,33.8,33.8,100,29.17,3.0,SE,4.6,-,0.05,Rain-Snow,Light Rain,140,2013-02-20 22:43:00
1:53 PM,33.1,32.0,96,29.18,8.0,East,8.1,-,0.06,Rain-Snow,Light Rain,100,2013-02-20 22:53:00
2:00 PM,33.8,32.0,93,29.17,10.0,SSE,5.8,-,0.00,Rain-Snow,Light Rain,160,2013-02-20 23:00:00
2:10 PM,33.8,33.8,100,29.17,10.0,East,6.9,-,0.00,Rain-Snow,Light Rain,100,2013-02-20 23:10:00
2:18 PM,33.8,33.8,100,29.17,10.0,East,6.9,-,0.00,Rain-Snow,Light Rain,100,2013-02-20 23:18:00
2:53 PM,34.0,33.1,96,29.17,10.0,East,8.1,-,0.00,,Overcast,90,2013-02-20 23:53:00
3:11 PM,33.8,33.8,100,29.18,10.0,ESE,6.9,-,0.01,Rain-Snow,Light Rain,110,2013-02-21 00:11:00
3:35 PM,33.8,33.8,100,29.18,9.0,East,8.1,-,0.01,,Light Ice Pellets,100,2013-02-21 00:35:00
3:46 PM,33.8,33.8,100,29.18,2.0,Variable,3.5,-,0.04,Rain-Snow,Light Rain,0,2013-02-21 00:46:00
3:53 PM,34.0,33.1,96,29.19,4.0,Variable,3.5,-,0.05,Rain-Snow,Light Rain,0,2013-02-21 00:53:00
4:10 PM,33.8,33.8,100,29.19,1.8,SE,4.6,-,0.01,Rain-Snow,Light Rain,130,2013-02-21 01:10:00
4:18 PM,33.8,33.8,100,29.19,1.0,SE,6.9,-,0.05,Rain-Snow,Light Rain,130,2013-02-21 01:18:00
4:25 PM,33.8,33.8,100,29.19,2.0,ESE,4.6,-,0.06,Rain-Snow,Light Rain,120,2013-02-21 01:25:00
4:35 PM,33.8,33.8,100,29.19,5.0,East,4.6,-,0.08,Rain,Light Rain,100,2013-02-21 01:35:00
4:53 PM,33.1,33.1,100,29.20,4.0,East,4.6,-,0.09,Snow,Light Snow,100,2013-02-21 01:53:00
5:48 PM,33.8,33.8,100,29.21,10.0,East,4.6,-,0.02,Rain,Light Rain,90,2013-02-21 02:48:00
5:53 PM,34.0,33.1,96,29.21,10.0,East,4.6,-,0.02,,Overcast,90,2013-02-21 02:53:00
6:38 PM,33.8,32.0,93,29.22,2.0,ESE,4.6,-,0.01,Snow,Light Snow,120,2013-02-21 03:38:00
6:45 PM,33.8,32.0,93,29.22,1.5,ESE,4.6,-,0.02,Snow,Light Snow,110,2013-02-21 03:45:00
6:51 PM,33.8,32.0,93,29.22,2.0,East,3.5,-,0.03,Snow,Light Snow,100,2013-02-21 03:51:00
6:53 PM,33.1,32.0,96,29.22,2.0,East,3.5,-,0.03,Snow,Light Snow,90,2013-02-21 03:53:00
7:03 PM,33.8,32.0,93,29.22,4.0,East,5.8,-,0.00,Snow,Light Snow,90,2013-02-21 04:03:00
7:53 PM,33.1,32.0,96,29.23,3.0,East,6.9,-,0.01,Snow,Light Snow,90,2013-02-21 04:53:00
8:14 PM,33.8,32.0,93,29.23,5.0,East,5.8,-,0.00,Snow,Light Snow,100,2013-02-21 05:14:00
8:24 PM,33.8,32.0,93,29.23,4.0,East,6.9,-,0.00,Snow,Light Snow,100,2013-02-21 05:24:00
8:32 PM,33.8,32.0,93,29.23,1.8,East,5.8,-,0.00,Snow,Light Snow,90,2013-02-21 05:32:00
8:44 PM,33.8,32.0,93,29.23,3.0,East,6.9,-,0.01,Snow,Light Snow,90,2013-02-21 05:44:00
8:53 PM,33.1,32.0,96,29.23,4.0,East,6.9,-,0.01,Snow,Light Snow,90,2013-02-21 05:53:00
9:09 PM,33.8,32.0,93,29.23,9.0,East,6.9,-,0.00,,Overcast,90,2013-02-21 06:09:00
9:30 PM,33.8,32.0,93,29.23,2.5,East,5.8,-,0.01,Snow,Light Snow,80,2013-02-21 06:30:00
9:33 PM,33.8,33.8,100,29.23,4.0,East,5.8,-,0.01,Snow,Light Snow,80,2013-02-21 06:33:00
9:43 PM,33.8,33.8,100,29.22,9.0,East,5.8,-,0.01,,Overcast,80,2013-02-21 06:43:00
9:53 PM,33.1,33.1,100,29.22,10.0,East,5.8,-,0.01,,Overcast,80,2013-02-21 06:53:00
10:46 PM,33.8,32.0,93,29.22,7.0,ENE,4.6,-,0.01,Snow,Light Snow,70,2013-02-21 07:46:00
10:53 PM,33.1,32.0,96,29.22,8.0,ENE,5.8,-,0.01,Snow,Light Snow,70,2013-02-21 07:53:00
11:53 PM,34.0,32.0,92,29.22,10.0,NE,4.6,-,0.01,Rain,Light Rain,50,2013-02-21 08:53:00